Location: *
(43.9905°S, 176.4941°W)
Time: 19:42:26
(UTC+00:00)

Cosmos 1745 Rocket - Pass Details

Date: 08 December 2019
Orbit: 952 x 999 km, 83.0° (Epoch: 21 January)

Event Time Altitude Azimuth Distance (km) Brightness Sun altitude
Rises 07:51:37 0° 189° (S) 3,714 7.9 -5.6°
Reaches altitude 10° 07:54:08 10° 188° (S) 2,766 7.2 -6.0°
Maximum altitude 08:00:31 89° 277° (W) 1,005 4.1 -6.9°
Drops below altitude 10° 08:06:53 10° 5° (N) 2,762 5.9 -7.7°
Sets 08:09:24 0° 5° (N) 3,707 6.6 -8.0°
